SCP
-0 0 0 0 -0 -0 0 0 0 0 0 0 0 0 0 0 0 0 0 0 0 0 0 0 0 0 0 0 0 0 0 0 0 0 0 0 0 0 0 0 0 0 0 0
0 0 0 -0 -0 0 0 0 0 0 0 0 0 0 0 0 0 0 0 0 0 0 0 0 0 0 0 0 0 0 0 0 0 0 0 0 0 0 0 0 0 0 0 0
0 -0 -0 -0 0 0 0 0 0 0 0 0 0 0 0 0 0 0 0 0 0 0 0 0 0 0 0 0 0 0 0 0 0 0 0 0 0 0 0 0 0 0 0 0
-0 -0 -0 0 0 0 0 0 0 0 0 0 0 0 0 0 0 0 0 0 0 0 0 0 -0 -0 -0 0 0 0 0 0 0 0 0 0 0 0 0 0 0 0 0 0
-0 -0 -0 -0 0 0 0 0 0 0 0 0 0 0 0 0 0 0 0 0 0 0 0 0 -0 -0 0 0 0 0 0 0 0 0 0 0 0 0 0 0 0 0 0 0
0 -0 -0 0 -0 -0 0 0 0 0 0 0 0 0 0 0 0 0 0 0 0 0 0 0 0 0 0 0 0 0 0 0 0 0 0 0 0 0 0 0 0 0 0 0
0 0 0 0 0 0 0 0 0 0 0 0 0 0 0 0 0 0 0 0 0 0 0 0 0 -0 0 0 -0 0 0 0 0 0 0 0 0 0 0 0 0 0 0 0
0 0 0 0 0 0 0 -0 0 -0 -0 -0 -0 0 0 0 0 0 0 0 0 0 0 0 0 -0 -0 -0 0 0 0 0 -0 0 0 0 0 0 0 0 0 0 0 0
0 0 0 0 0 0 0 0 0 0 0 0 0 -0 -0 0 0 0 0 0 0 0 0 0 0 0 0 -0 -0 0 0 0 0 0 0 0 0 0 0 0 0 0 0 0
-0 0 0 0 0 0 0 -0 0 0 0 -0 0 -0 -0 -0 -0 0 0 0 0 0 0 0 0 0 0 0 -0 0 0 0 0 0 0 0 0 0 0 0 0 0 0 0
-0 -0 -0 -0 0 0 0 0 0 -0 0 0 0 0 0 -0 0 -0 0 0 0 0 0 0 0 0 0 0 0 0 0 0 0 0 0 0 0 0 0 0 0 0 0 0
-0 -0 -0 -0 -0 -0 0 0 0 0 0 0 0 0 0 0 -0 -0 -0 0 0 0 0 0 0 0 0 0 0 0 0 0 0 0 0 0 0 0 0 0 0 0 0 0
-0 -0 -0 -0 -0 0 0 0 0 0 0 0 0 0 0 -0 -0 -0 0 -0 -0 -0 -0 -0 -0 -0 -0 0 0 0 0 0 0 0 0 0 0 0 0 0 0 0 0 0
-0 -0 -0 0 0 0 0 0 0 0 -0 -0 0 -0 0 -0 0 0 -0 -0 -0 -0 0 -0 0 0 0 0 0 -0 -0 0 0 0 0 0 0 0 0 0 0 0 0 0
-0 -0 0 0 0 0 0 0 0 0 0 0 -0 -0 -0 -0 -0 -0 -0 -0 0 0 0 0 0 0 0 0 -0 -0 0 0 0 0 0 0 0 0 0 0 0 0 0 0
0 -0 -0 0 0 0 0 0 0 0 0 -0 -0 -0 0 0 -0 0 0 0 0 0 0 0 0 0 0 0 0 0 0 0 0 0 0 0 0 0 0 0 0 0 0 0
-0 -0 0 0 0 0 0 0 0 0 0 0 -0 -0 -0 0 -0 -0 0 0 -0 0 0 0 0 0 0 0 0 0 0 0 0 0 0 0 0 0 0 0 0 0 0 0
-0 0 0 -0 -0 0 0 0 0 0 0 0 0 0 0 0 0 0 0 0 0 0 0 0 0 0 0 0 0 0 0 0 0 0 0 0 0 0 0 0 0 0 0 0
0 0 0 0 0 0 0 0 0 0 0 0 0 0 0 0 0 0 0 0 0 0 0 0 0 0 0 0 0 0 0 0 0 0 0 0 0 0 0 0 0 0 0 0
0 0 0 0 0 0 0 0 0 0 0 0 0 0 0 0 0 0 0 0 0 0 0 0 0 0 0 0 0 0 0 0 0 0 0 0 0 0 0 0 0 0 0 0
0 0 0 0 0 0 0 0 0 0 0 0 0 0 0 0 0 0 0 0 0 0 0 0 0 0 0 0 0 0 0 0 0 0 0 0 0 0 0 0 0 0 0 0
0 0 0 0 0 0 0 0 0 0 0 0 0 0 0 0 0 0 0 0 0 0 0 0 0 0 0 0 0 0 0 0 0 0 0 0 0 0 0 0 0 0 0 0
0 0 0 0 0 0 0 0 0 0 0 0 0 0 0 0 0 0 0 0 0 0 0 0 0 0 0 0 0 0 0 0 0 0 0 0 0 0 0 0 0 0 0 0
0 0 0 0 0 0 0 0 0 0 0 0 0 0 0 0 0 0 0 0 0 0 0 0 0 0 0 0 0 0 0 0 0 0 0 0 0 0 0 0 0 0 0 0
0 0 0 0 0 0 0 0 0 0 0 0 0 0 0 0 0 0 0 0 0 0 0 0 0 0 0 0 0 0 0 0 0 0 0 0 0 0 0 0 0 0 0 0
0 0 0 0 0 0 0 0 0 0 0 0 0 0 0 0 0 0 0 0 0 0 0 0 0 0 0 0 0 0 0 0 0 0 0 0 0 0 0 0 0 0 0 0
0 0 0 0 0 0 0 0 0 0 0 0 0 0 0 0 0 0 0 0 0 0 0 0 0 0 0 0 0 0 0 0 0 0 0 0 0 0 0 0 0 0 0 0
Wind_Speed_500mb
36 39 46 50 59 64 71 22 7 46 43 10 3 5 10 6 5 5 3 7 9 4 4 9 18 13 7 15 35 31 16 6 11 17 7 9 26 21 31 15 10 7 13 35
34 37 44 45 53 67 55 15 22 42 46 6 2 5 2 5 5 5 7 6 3 1 3 4 5 3 11 9 13 19 20 12 11 4 1 9 13 15 12 14 4 29 19 30
29 28 29 37 56 48 41 15 7 10 18 9 13 7 6 4 2 2 6 8 9 7 1 4 1 4 6 22 6 33 27 11 15 30 6 10 11 18 33 22 16 34 26 51
28 34 27 52 62 51 34 7 4 7 7 9 7 6 10 8 3 5 2 4 8 9 5 5 9 8 4 9 13 12 8 11 16 25 3 3 5 23 34 38 47 25 43 36
37 48 44 47 59 44 18 9 11 11 4 28 13 12 9 16 6 9 6 5 9 10 11 11 7 3 3 9 4 18 7 12 6 24 19 21 25 13 29 35 42 37 51 41
51 44 39 40 50 43 10 14 20 12 7 4 10 9 11 15 15 18 16 21 8 13 20 32 39 35 31 19 9 14 8 7 10 34 12 11 16 47 37 22 31 28 30 47
37 37 34 33 27 20 19 27 15 8 4 4 9 5 17 18 18 11 10 26 12 7 4 16 16 22 38 39 35 33 10 6 16 12 8 14 13 5 39 50 50 43 34 30
26 26 27 26 22 18 9 21 14 11 4 11 7 15 9 9 24 17 21 26 7 7 13 7 11 6 6 24 36 37 29 7 10 12 12 8 15 16 13 18 34 36 40 45
19 20 20 22 18 14 17 12 5 5 9 11 16 9 23 8 6 5 14 18 28 16 6 5 7 8 8 9 9 3 25 21 12 2 4 12 22 5 26 13 10 28 18 29
11 15 16 15 16 12 7 6 3 4 5 10 13 7 7 14 15 1 1 11 13 31 11 11 7 10 6 9 10 10 8 4 24 24 14 11 21 20 33 12 20 6 12 23
6 10 9 7 6 5 9 11 7 7 9 13 15 17 10 8 21 7 10 8 8 12 12 8 8 7 10 1 5 10 15 14 10 9 10 20 14 10 14 4 9 16 5 8
12 14 12 11 10 11 12 13 13 14 14 10 13 22 17 24 23 15 14 4 7 12 7 1 3 6 2 4 6 6 6 11 8 16 13 2 7 4 7 7 15 23 41 55
13 9 11 15 20 16 10 9 11 14 10 10 13 14 20 18 20 23 8 9 11 7 6 6 2 6 5 3 9 7 11 6 3 5 9 20 45 37 33 33 44 52 51 52
12 5 7 10 13 13 12 11 11 12 3 4 5 15 13 15 18 24 23 10 9 9 6 5 4 5 14 6 7 5 6 9 10 14 30 26 62 56 38 37 46 50 54 52
14 13 12 15 17 18 18 13 5 5 2 5 4 9 15 16 14 10 12 18 11 6 3 2 6 6 2 5 7 7 17 13 11 21 10 26 31 40 52 60 64 61 57 56
19 20 20 20 20 19 18 4 5 7 9 5 2 3 3 1 1 4 1 1 8 9 6 6 8 6 4 3 7 19 36 64 67 46 52 48 56 61 61 57 54 46 45 45
20 19 22 23 25 22 11 6 2 4 11 5 5 5 2 3 6 3 1 1 3 7 6 7 4 5 8 5 8 13 30 34 33 32 38 50 57 41 41 42 48 49 49 48
21 20 19 23 23 21 17 23 27 18 8 5 3 6 1 5 7 5 4 5 7 8 5 5 3 6 9 10 26 19 17 23 33 36 38 39 40 40 38 38 40 44 42 41
18 18 19 15 7 5 5 5 5 12 8 3 5 7 7 7 5 4 6 5 3 4 2 3 2 4 14 20 20 29 32 17 16 25 29 34 40 40 35 31 28 26 28 30
16 14 5 2 1 2 5 2 4 7 6 6 6 8 2 3 5 3 2 2 2 3 5 5 3 8 50 61 58 53 47 44 46 41 35 23 23 25 25 24 24 29 31 31
11 3 1 1 3 4 2 2 2 1 5 8 3 13 4 5 5 6 1 2 3 2 6 5 5 8 11 9 8 2 6 10 14 20 26 26 26 21 18 20 25 28 29 28
14 15 13 8 3 2 6 3 5 3 8 9 9 7 5 6 5 7 1 6 3 10 5 5 7 10 27 22 18 14 13 14 15 18 19 20 20 20 21 22 23 25 25 25
8 4 6 6 3 6 11 9 8 4 15 21 17 4 10 9 7 12 6 6 9 0 4 8 11 18 13 14 15 18 19 19 18 17 19 20 20 21 21 21 24 25 24 25
3 5 6 9 6 10 10 9 9 9 10 35 25 14 6 5 7 3 7 5 5 4 3 14 7 19 11 15 18 28 23 24 22 21 22 21 22 22 25 25 27 29 27 26
7 8 9 13 14 13 8 14 11 12 33 32 14 11 3 4 6 2 7 7 9 13 11 7 15 11 13 15 21 24 27 25 21 21 22 24 26 25 27 28 27 28 28 29
11 15 4 9 1 5 14 25 16 30 38 18 8 6 6 8 7 5 15 11 14 9 8 21 10 11 17 21 23 24 25 27 25 26 24 26 27 26 27 27 26 27 28 28
12 15 27 21 10 9 12 22 26 41 32 6 8 9 20 5 4 7 11 12 9 14 21 13 16 23 25 25 24 23 27 33 32 29 27 26 27 26 25 25 28 28 28 27
Wind_Direction_500mb
126 142 148 156 163 166 165 110 94 155 161 101 40 158 179 210 127 83 83 82 59 41 66 227 196 196 250 219 164 193 179 153 220 209 277 223 220 220 203 204 237 249 264 264
128 138 148 158 166 167 149 90 93 157 170 135 100 342 342 206 155 151 160 120 134 68 183 116 18 8 330 357 181 182 163 205 238 303 229 336 213 211 213 208 103 228 229 258
128 138 154 168 172 160 149 103 125 128 174 121 131 130 271 313 123 167 146 125 145 148 200 330 145 301 317 346 294 256 182 189 213 237 217 150 205 200 219 215 221 241 230 262
126 127 143 169 171 160 147 90 72 139 170 187 143 158 163 156 185 224 201 55 217 154 109 172 234 214 296 329 299 224 221 243 218 239 261 309 208 217 215 217 232 230 252 247
130 147 137 167 171 159 154 120 136 152 78 147 135 194 207 166 257 142 285 153 195 205 208 216 141 337 98 217 23 351 235 261 233 257 251 222 244 252 235 226 233 240 247 258
72 69 56 167 165 163 126 102 134 158 28 77 130 215 182 193 163 203 192 202 183 219 233 248 266 273 265 253 257 199 210 304 224 255 194 186 238 229 225 235 237 227 238 247
70 69 72 76 91 161 224 216 161 133 219 155 205 212 185 189 205 190 208 210 173 161 170 305 289 262 257 251 244 243 217 214 256 246 140 244 258 213 216 225 235 235 248 262
61 66 73 72 71 67 84 175 183 165 174 191 234 226 212 210 227 230 233 238 210 340 11 16 344 329 271 229 226 223 218 153 262 228 203 329 295 252 190 179 249 246 240 248
57 53 65 72 68 67 72 83 165 123 114 245 222 188 214 196 183 344 214 231 250 221 145 127 222 234 224 242 183 239 194 200 228 134 262 205 248 186 136 113 268 244 212 241
77 93 103 78 29 13 41 52 11 159 228 266 191 203 174 180 184 179 164 151 166 196 182 202 211 240 232 215 197 159 147 157 223 240 244 263 262 158 150 133 259 64 172 240
240 188 193 290 351 336 308 301 283 226 240 265 228 225 207 179 182 159 160 121 167 164 198 188 212 219 223 211 210 180 172 172 203 220 226 256 140 116 170 242 337 326 317 223
293 240 263 283 312 306 289 277 260 268 257 280 269 227 227 218 207 195 176 174 178 186 186 210 97 253 359 190 255 335 294 183 183 188 215 316 217 232 208 288 289 298 305 306
360 230 269 302 311 321 319 282 274 284 271 277 246 240 232 210 210 207 206 202 194 202 178 166 215 235 116 213 243 229 217 174 106 27 228 237 266 272 272 285 293 302 303 306
348 340 288 303 327 331 323 294 282 277 251 310 265 249 238 237 238 234 229 209 206 182 204 160 179 189 189 239 260 193 188 134 193 262 275 294 274 277 291 299 302 303 306 301
298 290 284 287 302 317 329 315 273 152 298 253 268 266 248 223 229 248 241 225 221 234 279 215 239 254 18 312 349 253 192 216 205 249 213 252 281 299 304 306 306 305 302 296
299 284 282 290 284 293 329 326 207 236 341 291 5 284 292 268 119 105 150 302 203 203 212 234 245 259 274 222 245 249 235 236 238 249 271 286 297 301 301 301 301 299 300 300
324 299 279 274 278 275 254 251 239 320 323 262 353 354 147 175 170 151 208 76 205 202 235 243 254 227 237 251 247 227 224 243 257 276 285 287 287 293 296 298 299 298 298 299
319 312 287 271 267 275 258 261 274 269 260 248 83 273 224 165 150 171 174 183 203 216 258 257 229 260 227 252 241 245 250 266 279 275 276 281 287 289 294 299 304 306 310 309
319 306 296 290 295 230 260 269 237 208 214 137 144 168 231 157 126 149 185 215 237 229 178 231 215 255 227 235 259 261 269 262 274 284 287 288 288 291 293 296 301 307 315 315
323 307 300 302 303 225 292 267 193 173 197 220 199 173 196 151 128 125 104 183 253 233 258 317 166 257 262 259 261 268 271 275 279 280 288 286 288 295 294 297 303 311 313 315
350 324 287 28 290 274 220 185 87 299 346 214 202 196 156 185 113 183 139 207 52 288 265 148 288 272 251 274 267 270 255 263 264 271 277 280 286 291 291 296 305 309 312 314
302 260 269 266 189 153 84 258 345 109 228 187 152 151 154 145 154 110 8 131 38 245 337 58 271 252 260 261 259 264 273 277 282 282 283 288 287 284 289 300 306 309 308 306
344 147 174 185 181 43 150 222 278 284 184 177 167 170 161 146 162 82 88 107 223 135 48 234 235 258 260 271 265 259 270 276 272 281 292 295 288 289 294 298 302 308 310 307
287 207 277 166 258 247 191 186 187 169 170 159 146 119 154 128 76 138 115 240 64 21 307 236 246 236 256 266 258 246 256 256 260 276 284 287 284 284 288 292 299 304 307 305
244 191 234 216 228 235 220 191 161 152 152 147 119 86 145 5 86 53 90 24 256 212 230 231 234 209 277 291 269 253 249 247 258 273 282 283 278 279 284 287 293 297 300 302
229 231 260 214 345 243 206 202 186 169 158 146 121 113 68 253 143 120 217 142 226 243 221 236 223 289 303 294 285 268 256 253 260 268 274 277 278 279 286 288 292 296 303 305
224 240 223 213 261 232 182 184 179 171 160 174 136 148 213 94 42 258 189 212 223 223 227 222 274 286 287 278 278 269 263 259 257 262 268 271 274 279 281 286 287 297 301 303
Wind_Speed_850mb
36 39 46 50 59 64 71 22 7 46 43 10 3 5 10 6 5 5 3 7 9 4 4 9 18 13 7 15 35 31 16 6 11 17 7 9 26 21 31 15 10 7 13 35
34 37 44 45 53 67 55 15 22 42 46 6 2 5 2 5 5 5 7 6 3 1 3 4 5 3 11 9 13 19 20 12 11 4 1 9 13 15 12 14 4 29 19 30
29 28 29 37 56 48 41 15 7 10 18 9 13 7 6 4 2 2 6 8 9 7 1 4 1 4 6 22 6 33 27 11 15 30 6 10 11 18 33 22 16 34 26 51
28 34 27 52 62 51 34 7 4 7 7 9 7 6 10 8 3 5 2 4 8 9 5 5 9 8 4 9 13 12 8 11 16 25 3 3 5 23 34 38 47 25 43 36
37 48 44 47 59 44 18 9 11 11 4 28 13 12 9 16 6 9 6 5 9 10 11 11 7 3 3 9 4 18 7 12 6 24 19 21 25 13 29 35 42 37 51 41
51 44 39 40 50 43 10 14 20 12 7 4 10 9 11 15 15 18 16 21 8 13 20 32 39 35 31 19 9 14 8 7 10 34 12 11 16 47 37 22 31 28 30 47
37 37 34 33 27 20 19 27 15 8 4 4 9 5 17 18 18 11 10 26 12 7 4 16 16 22 38 39 35 33 10 6 16 12 8 14 13 5 39 50 50 43 34 30
26 26 27 26 22 18 9 21 14 11 4 11 7 15 9 9 24 17 21 26 7 7 13 7 11 6 6 24 36 37 29 7 10 12 12 8 15 16 13 18 34 36 40 45
19 20 20 22 18 14 17 12 5 5 9 11 16 9 23 8 6 5 14 18 28 16 6 5 7 8 8 9 9 3 25 21 12 2 4 12 22 5 26 13 10 28 18 29
11 15 16 15 16 12 7 6 3 4 5 10 13 7 7 14 15 1 1 11 13 31 11 11 7 10 6 9 10 10 8 4 24 24 14 11 21 20 33 12 20 6 12 23
6 10 9 7 6 5 9 11 7 7 9 13 15 17 10 8 21 7 10 8 8 12 12 8 8 7 10 1 5 10 15 14 10 9 10 20 14 10 14 4 9 16 5 8
12 14 12 11 10 11 12 13 13 14 14 10 13 22 17 24 23 15 14 4 7 12 7 1 3 6 2 4 6 6 6 11 8 16 13 2 7 4 7 7 15 23 41 55
13 9 11 15 20 16 10 9 11 14 10 10 13 14 20 18 20 23 8 9 11 7 6 6 2 6 5 3 9 7 11 6 3 5 9 20 45 37 33 33 44 52 51 52
12 5 7 10 13 13 12 11 11 12 3 4 5 15 13 15 18 24 23 10 9 9 6 5 4 5 14 6 7 5 6 9 10 14 30 26 62 56 38 37 46 50 54 52
14 13 12 15 17 18 18 13 5 5 2 5 4 9 15 16 14 10 12 18 11 6 3 2 6 6 2 5 7 7 17 13 11 21 10 26 31 40 52 60 64 61 57 56
19 20 20 20 20 19 18 4 5 7 9 5 2 3 3 1 1 4 1 1 8 9 6 6 8 6 4 3 7 19 36 64 67 46 52 48 56 61 61 57 54 46 45 45
20 19 22 23 25 22 11 6 2 4 11 5 5 5 2 3 6 3 1 1 3 7 6 7 4 5 8 5 8 13 30 34 33 32 38 50 57 41 41 42 48 49 49 48
21 20 19 23 23 21 17 23 27 18 8 5 3 6 1 5 7 5 4 5 7 8 5 5 3 6 9 10 26 19 17 23 33 36 38 39 40 40 38 38 40 44 42 41
18 18 19 15 7 5 5 5 5 12 8 3 5 7 7 7 5 4 6 5 3 4 2 3 2 4 14 20 20 29 32 17 16 25 29 34 40 40 35 31 28 26 28 30
16 14 5 2 1 2 5 2 4 7 6 6 6 8 2 3 5 3 2 2 2 3 5 5 3 8 50 61 58 53 47 44 46 41 35 23 23 25 25 24 24 29 31 31
11 3 1 1 3 4 2 2 2 1 5 8 3 13 4 5 5 6 1 2 3 2 6 5 5 8 11 9 8 2 6 10 14 20 26 26 26 21 18 20 25 28 29 28
14 15 13 8 3 2 6 3 5 3 8 9 9 7 5 6 5 7 1 6 3 10 5 5 7 10 27 22 18 14 13 14 15 18 19 20 20 20 21 22 23 25 25 25
8 4 6 6 3 6 11 9 8 4 15 21 17 4 10 9 7 12 6 6 9 0 4 8 11 18 13 14 15 18 19 19 18 17 19 20 20 21 21 21 24 25 24 25
3 5 6 9 6 10 10 9 9 9 10 35 25 14 6 5 7 3 7 5 5 4 3 14 7 19 11 15 18 28 23 24 22 21 22 21 22 22 25 25 27 29 27 26
7 8 9 13 14 13 8 14 11 12 33 32 14 11 3 4 6 2 7 7 9 13 11 7 15 11 13 15 21 24 27 25 21 21 22 24 26 25 27 28 27 28 28 29
11 15 4 9 1 5 14 25 16 30 38 18 8 6 6 8 7 5 15 11 14 9 8 21 10 11 17 21 23 24 25 27 25 26 24 26 27 26 27 27 26 27 28 28
12 15 27 21 10 9 12 22 26 41 32 6 8 9 20 5 4 7 11 12 9 14 21 13 16 23 25 25 24 23 27 33 32 29 27 26 27 26 25 25 28 28 28 27
Wind_Direction_850mb
126 142 148 156 163 166 165 110 94 155 161 101 40 158 179 210 127 83 83 82 59 41 66 227 196 196 250 219 164 193 179 153 220 209 277 223 220 220 203 204 237 249 264 264
128 138 148 158 166 167 149 90 93 157 170 135 100 342 342 206 155 151 160 120 134 68 183 116 18 8 330 357 181 182 163 205 238 303 229 336 213 211 213 208 103 228 229 258
128 138 154 168 172 160 149 103 125 128 174 121 131 130 271 313 123 167 146 125 145 148 200 330 145 301 317 346 294 256 182 189 213 237 217 150 205 200 219 215 221 241 230 262
126 127 143 169 171 160 147 90 72 139 170 187 143 158 163 156 185 224 201 55 217 154 109 172 234 214 296 329 299 224 221 243 218 239 261 309 208 217 215 217 232 230 252 247
130 147 137 167 171 159 154 120 136 152 78 147 135 194 207 166 257 142 285 153 195 205 208 216 141 337 98 217 23 351 235 261 233 257 251 222 244 252 235 226 233 240 247 258
72 69 56 167 165 163 126 102 134 158 28 77 130 215 182 193 163 203 192 202 183 219 233 248 266 273 265 253 257 199 210 304 224 255 194 186 238 229 225 235 237 227 238 247
70 69 72 76 91 161 224 216 161 133 219 155 205 212 185 189 205 190 208 210 173 161 170 305 289 262 257 251 244 243 217 214 256 246 140 244 258 213 216 225 235 235 248 262
61 66 73 72 71 67 84 175 183 165 174 191 234 226 212 210 227 230 233 238 210 340 11 16 344 329 271 229 226 223 218 153 262 228 203 329 295 252 190 179 249 246 240 248
57 53 65 72 68 67 72 83 165 123 114 245 222 188 214 196 183 344 214 231 250 221 145 127 222 234 224 242 183 239 194 200 228 134 262 205 248 186 136 113 268 244 212 241
77 93 103 78 29 13 41 52 11 159 228 266 191 203 174 180 184 179 164 151 166 196 182 202 211 240 232 215 197 159 147 157 223 240 244 263 262 158 150 133 259 64 172 240
240 188 193 290 351 336 308 301 283 226 240 265 228 225 207 179 182 159 160 121 167 164 198 188 212 219 223 211 210 180 172 172 203 220 226 256 140 116 170 242 337 326 317 223
293 240 263 283 312 306 289 277 260 268 257 280 269 227 227 218 207 195 176 174 178 186 186 210 97 253 359 190 255 335 294 183 183 188 215 316 217 232 208 288 289 298 305 306
360 230 269 302 311 321 319 282 274 284 271 277 246 240 232 210 210 207 206 202 194 202 178 166 215 235 116 213 243 229 217 174 106 27 228 237 266 272 272 285 293 302 303 306
348 340 288 303 327 331 323 294 282 277 251 310 265 249 238 237 238 234 229 209 206 182 204 160 179 189 189 239 260 193 188 134 193 262 275 294 274 277 291 299 302 303 306 301
298 290 284 287 302 317 329 315 273 152 298 253 268 266 248 223 229 248 241 225 221 234 279 215 239 254 18 312 349 253 192 216 205 249 213 252 281 299 304 306 306 305 302 296
299 284 282 290 284 293 329 326 207 236 341 291 5 284 292 268 119 105 150 302 203 203 212 234 245 259 274 222 245 249 235 236 238 249 271 286 297 301 301 301 301 299 300 300
324 299 279 274 278 275 254 251 239 320 323 262 353 354 147 175 170 151 208 76 205 202 235 243 254 227 237 251 247 227 224 243 257 276 285 287 287 293 296 298 299 298 298 299
319 312 287 271 267 275 258 261 274 269 260 248 83 273 224 165 150 171 174 183 203 216 258 257 229 260 227 252 241 245 250 266 279 275 276 281 287 289 294 299 304 306 310 309
319 306 296 290 295 230 260 269 237 208 214 137 144 168 231 157 126 149 185 215 237 229 178 231 215 255 227 235 259 261 269 262 274 284 287 288 288 291 293 296 301 307 315 315
323 307 300 302 303 225 292 267 193 173 197 220 199 173 196 151 128 125 104 183 253 233 258 317 166 257 262 259 261 268 271 275 279 280 288 286 288 295 294 297 303 311 313 315
350 324 287 28 290 274 220 185 87 299 346 214 202 196 156 185 113 183 139 207 52 288 265 148 288 272 251 274 267 270 255 263 264 271 277 280 286 291 291 296 305 309 312 314
302 260 269 266 189 153 84 258 345 109 228 187 152 151 154 145 154 110 8 131 38 245 337 58 271 252 260 261 259 264 273 277 282 282 283 288 287 284 289 300 306 309 308 306
344 147 174 185 181 43 150 222 278 284 184 177 167 170 161 146 162 82 88 107 223 135 48 234 235 258 260 271 265 259 270 276 272 281 292 295 288 289 294 298 302 308 310 307
287 207 277 166 258 247 191 186 187 169 170 159 146 119 154 128 76 138 115 240 64 21 307 236 246 236 256 266 258 246 256 256 260 276 284 287 284 284 288 292 299 304 307 305
244 191 234 216 228 235 220 191 161 152 152 147 119 86 145 5 86 53 90 24 256 212 230 231 234 209 277 291 269 253 249 247 258 273 282 283 278 279 284 287 293 297 300 302
229 231 260 214 345 243 206 202 186 169 158 146 121 113 68 253 143 120 217 142 226 243 221 236 223 289 303 294 285 268 256 253 260 268 274 277 278 279 286 288 292 296 303 305
224 240 223 213 261 232 182 184 179 171 160 174 136 148 213 94 42 258 189 212 223 223 227 222 274 286 287 278 278 269 263 259 257 262 268 271 274 279 281 286 287 297 301 303